"read_dt","SO2 (ppb)","flags","PMT voltage (V)","lamp voltage (V)","lamp intensity (Hz)","internal temp (C)","react chamber temp (C)","sample flow (l/min)","pres (mmHg)","SO2 bkg (ppb)","SO2 coefficient"
2014-06-24 00:00:00,1911E-3,5C000000,-0724,0836,12151,028.9,045.5,0.480,726.6,01.19,0.508
2014-06-24 00:01:00,1806E-3,5C000000,-0724,0836,12232,028.9,045.5,0.480,726.6,01.19,0.508
2014-06-24 00:02:00,1835E-3,5C000000,-0724,0836,12199,028.9,045.5,0.480,726.6,01.19,0.508
2014-06-24 00:03:00,1810E-3,5C000000,-0724,0836,11903,028.9,045.5,0.480,726.6,01.19,0.508
2014-06-24 00:04:00,1846E-3,5C000000,-0724,0836,12181,028.9,045.5,0.480,726.6,01.19,0.508
2014-06-24 00:05:00,1929E-3,5C000000,-0724,0836,12082,028.9,045.5,0.480,726.7,01.19,0.508
2014-06-24 00:06:00,1897E-3,5C000000,-0724,0837,12104,028.9,045.5,0.480,726.6,01.19,0.508
2014-06-24 00:07:00,1922E-3,5C000000,-0724,0836,11845,028.9,045.5,0.480,726.6,01.19,0.508
2014-06-24 00:08:00,1962E-3,5C000000,-0724,0836,12247,028.9,045.5,0.480,726.6,01.19,0.508
2014-06-24 00:09:00,1847E-3,5C000000,-0724,0836,12057,028.9,045.5,0.480,726.6,01.19,0.508
2014-06-24 00:10:00,1707E-3,5C000000,-0724,0835,12327,028.9,045.5,0.480,726.6,01.19,0.508
2014-06-24 00:11:00,1898E-3,5C000000,-0724,0837,12197,028.9,045.5,0.480,726.6,01.19,0.508
2014-06-24 00:12:00,1778E-3,5C000000,-0724,0836,12193,028.9,045.5,0.480,726.6,01.19,0.508
2014-06-24 00:13:00,1930E-3,5C000000,-0724,0836,12166,028.9,045.5,0.480,726.6,01.19,0.508
2014-06-24 00:14:00,1850E-3,5C000000,-0724,0835,12221,028.9,045.5,0.480,726.6,01.19,0.508
2014-06-24 00:15:00,1693E-3,5C000000,-0724,0836,12062,028.9,045.5,0.480,726.6,01.19,0.508
2014-06-24 00:16:00,1811E-3,5C000000,-0724,0837,12307,028.9,045.5,0.480,726.6,01.19,0.508
2014-06-24 00:17:00,1929E-3,5C000000,-0724,0836,12158,028.9,045.5,0.480,726.6,01.19,0.508
2014-06-24 00:18:00,1885E-3,5C000000,-0724,0835,12002,028.8,045.5,0.480,726.6,01.19,0.508
2014-06-24 00:19:00,1845E-3,5C000000,-0724,0836,12099,028.9,045.5,0.480,726.5,01.19,0.508
2014-06-24 00:20:00,1881E-3,5C000000,-0724,0836,12104,028.9,045.5,0.480,726.5,01.19,0.508
2014-06-24 00:21:00,1826E-3,5C000000,-0724,0835,12116,028.9,045.5,0.480,726.5,01.19,0.508
2014-06-24 00:22:00,1843E-3,5C000000,-0724,0836,12094,028.9,045.5,0.480,726.5,01.19,0.508
2014-06-24 00:23:00,1781E-3,5C000000,-0724,0837,11959,028.9,045.5,0.480,726.4,01.19,0.508
2014-06-24 00:24:00,1757E-3,5C000000,-0724,0837,12106,028.9,045.5,0.480,726.5,01.19,0.508
2014-06-24 00:25:00,1772E-3,5C000000,-0724,0836,12166,028.9,045.5,0.480,726.5,01.19,0.508
2014-06-24 00:26:00,1766E-3,5C000000,-0724,0836,12124,028.9,045.5,0.480,726.5,01.19,0.508
2014-06-24 00:27:00,1807E-3,5C000000,-0724,0837,12193,028.9,045.5,0.480,726.5,01.19,0.508
2014-06-24 00:28:00,1785E-3,5C000000,-0724,0836,12256,028.8,045.5,0.480,726.5,01.19,0.508
2014-06-24 00:29:00,1806E-3,5C000000,-0724,0837,12210,028.8,045.5,0.480,726.5,01.19,0.508
2014-06-24 00:30:00,1913E-3,5C000000,-0724,0836,12173,028.8,045.5,0.480,726.5,01.19,0.508
2014-06-24 00:31:00,1793E-3,5C000000,-0724,0836,12179,028.8,045.5,0.480,726.5,01.19,0.508
2014-06-24 00:32:00,1778E-3,5C000000,-0724,0836,12005,028.8,045.5,0.480,726.5,01.19,0.508
2014-06-24 00:33:00,1822E-3,5C000000,-0724,0837,12115,028.8,045.5,0.480,726.5,01.19,0.508
2014-06-24 00:34:00,1841E-3,5C000000,-0724,0837,11886,028.8,045.5,0.480,726.4,01.19,0.508
2014-06-24 00:35:00,1882E-3,5C000000,-0724,0837,12299,028.8,045.5,0.480,726.4,01.19,0.508
2014-06-24 00:36:00,1825E-3,5C000000,-0724,0837,12205,028.8,045.5,0.480,726.5,01.19,0.508
2014-06-24 00:37:00,1983E-3,5C000000,-0724,0837,12148,028.8,045.5,0.480,726.5,01.19,0.508
2014-06-24 00:38:00,1771E-3,5C000000,-0724,0836,12253,028.8,045.5,0.480,726.5,01.19,0.508
2014-06-24 00:39:00,1834E-3,5C000000,-0724,0836,12105,028.8,045.5,0.480,726.5,01.19,0.508
2014-06-24 00:40:00,1957E-3,5C000000,-0724,0836,11952,028.8,045.5,0.480,726.5,01.19,0.508
2014-06-24 00:41:00,1745E-3,5C000000,-0724,0837,12360,028.8,045.5,0.480,726.5,01.19,0.508
2014-06-24 00:42:00,1858E-3,5C000000,-0724,0836,11997,028.8,045.5,0.480,726.5,01.19,0.508
2014-06-24 00:43:00,1809E-3,5C000000,-0724,0836,12156,028.8,045.5,0.480,726.6,01.19,0.508
2014-06-24 00:44:00,1841E-3,5C000000,-0724,0837,12228,028.8,045.5,0.480,726.5,01.19,0.508
2014-06-24 00:45:00,1983E-3,5C000000,-0724,0835,12090,028.8,045.5,0.480,726.5,01.19,0.508
2014-06-24 00:46:00,1847E-3,5C000000,-0724,0836,12112,028.8,045.5,0.480,726.5,01.19,0.508
2014-06-24 00:47:00,1807E-3,5C000000,-0724,0836,12121,028.8,045.5,0.480,726.5,01.19,0.508
2014-06-24 00:48:00,1795E-3,5C000000,-0724,0837,12265,028.8,045.5,0.480,726.5,01.19,0.508
2014-06-24 00:49:00,1871E-3,5C000000,-0724,0837,12218,028.8,045.5,0.480,726.5,01.19,0.508
2014-06-24 00:50:00,1823E-3,5C000000,-0724,0836,12068,028.8,045.5,0.480,726.6,01.19,0.508
2014-06-24 00:51:00,1783E-3,5C000000,-0724,0836,12133,028.8,045.5,0.480,726.5,01.19,0.508
2014-06-24 00:52:00,1910E-3,5C000000,-0724,0836,12129,028.8,045.5,0.480,726.5,01.19,0.508
2014-06-24 00:53:00,1811E-3,5C000000,-0724,0836,12105,028.8,045.5,0.480,726.5,01.19,0.508
2014-06-24 00:54:00,1838E-3,5C000000,-0724,0836,12212,028.8,045.5,0.480,726.5,01.19,0.508
2014-06-24 00:55:00,1844E-3,5C000000,-0724,0836,12217,028.8,045.5,0.480,726.5,01.19,0.508
2014-06-24 00:56:00,1876E-3,5C000000,-0724,0836,12156,028.8,045.5,0.480,726.5,01.19,0.508
2014-06-24 00:57:00,2040E-3,5C000000,-0724,0836,12195,028.8,045.5,0.480,726.5,01.19,0.508
2014-06-24 00:58:00,1853E-3,5C000000,-0724,0836,12270,028.8,045.5,0.480,726.5,01.19,0.508
2014-06-24 00:59:00,1754E-3,5C000000,-0724,0836,12283,028.8,045.5,0.480,726.6,01.19,0.508
2014-06-24 01:00:00,1845E-3,5C000000,-0724,0836,12136,028.8,045.5,0.480,726.5,01.19,0.508
2014-06-24 01:01:00,2019E-3,5C000000,-0724,0835,12010,028.8,045.5,0.480,726.5,01.19,0.508
2014-06-24 01:02:00,1902E-3,5C000000,-0724,0837,12092,028.8,045.5,0.480,726.5,01.19,0.508
2014-06-24 01:03:00,1906E-3,5C000000,-0724,0837,11958,028.8,045.5,0.480,726.6,01.19,0.508
2014-06-24 01:04:00,1727E-3,5C000000,-0724,0836,12194,028.8,045.5,0.480,726.6,01.19,0.508
2014-06-24 01:05:00,1934E-3,5C000000,-0724,0836,12060,028.8,045.5,0.480,726.5,01.19,0.508
2014-06-24 01:06:00,1770E-3,5C000000,-0724,0835,12185,028.8,045.5,0.480,726.6,01.19,0.508
2014-06-24 01:07:00,1900E-3,5C000000,-0724,0836,12237,028.8,045.5,0.480,726.5,01.19,0.508
2014-06-24 01:08:00,1762E-3,5C000000,-0724,0836,12000,028.8,045.5,0.480,726.6,01.19,0.508
2014-06-24 01:09:00,1818E-3,5C000000,-0724,0836,12249,028.8,045.5,0.480,726.5,01.19,0.508
2014-06-24 01:10:00,1749E-3,5C000000,-0724,0836,12089,028.8,045.5,0.480,726.6,01.19,0.508
2014-06-24 01:11:00,1842E-3,5C000000,-0724,0836,12344,028.8,045.5,0.480,726.5,01.19,0.508
2014-06-24 01:12:00,1851E-3,5C000000,-0724,0835,12101,028.8,045.5,0.480,726.5,01.19,0.508
2014-06-24 01:13:00,1880E-3,5C000000,-0724,0836,12193,028.8,045.5,0.480,726.5,01.19,0.508
2014-06-24 01:14:00,2027E-3,5C000000,-0724,0836,12180,028.8,045.5,0.480,726.5,01.19,0.508
2014-06-24 01:15:00,1891E-3,5C000000,-0724,0837,12150,028.8,045.5,0.480,726.5,01.19,0.508
2014-06-24 01:16:00,1793E-3,5C000000,-0724,0836,12084,028.8,045.5,0.480,726.5,01.19,0.508
2014-06-24 01:17:00,1718E-3,5C000000,-0724,0837,12157,028.8,045.5,0.480,726.5,01.19,0.508
2014-06-24 01:18:00,1858E-3,5C000000,-0724,0837,12125,028.8,045.5,0.480,726.5,01.19,0.508
2014-06-24 01:19:00,1784E-3,5C000000,-0724,0835,11990,028.9,045.5,0.480,726.5,01.19,0.508
2014-06-24 01:20:00,1910E-3,5C000000,-0724,0836,12259,028.8,045.5,0.480,726.5,01.19,0.508
2014-06-24 01:21:00,1789E-3,5C000000,-0724,0837,12161,028.8,045.5,0.480,726.5,01.19,0.508
2014-06-24 01:22:00,1867E-3,5C000000,-0724,0836,12113,028.8,045.5,0.480,726.5,01.19,0.508
2014-06-24 01:23:00,1846E-3,5C000000,-0724,0837,12293,028.9,045.5,0.480,726.5,01.19,0.508
2014-06-24 01:24:00,1883E-3,5C000000,-0724,0836,12088,028.8,045.5,0.480,726.5,01.19,0.508
2014-06-24 01:25:00,2058E-3,5C000000,-0724,0836,12250,028.9,045.5,0.480,726.5,01.19,0.508
2014-06-24 01:26:00,1896E-3,5C000000,-0724,0836,12153,028.9,045.5,0.480,726.5,01.19,0.508
2014-06-24 01:27:00,1744E-3,5C000000,-0724,0836,12226,028.9,045.5,0.480,726.4,01.19,0.508
2014-06-24 01:28:00,1671E-3,5C000000,-0724,0836,12177,028.8,045.5,0.480,726.5,01.19,0.508
2014-06-24 01:29:00,1954E-3,5C000000,-0724,0836,12197,028.8,045.5,0.480,726.5,01.19,0.508
2014-06-24 01:30:00,1754E-3,5C000000,-0724,0835,12193,028.9,045.5,0.480,726.4,01.19,0.508
2014-06-24 01:31:00,1842E-3,5C000000,-0724,0836,11970,028.9,045.5,0.480,726.4,01.19,0.508
2014-06-24 01:32:00,1880E-3,5C000000,-0724,0836,12239,028.8,045.5,0.480,726.4,01.19,0.508
2014-06-24 01:33:00,1734E-3,5C000000,-0724,0836,12121,028.8,045.5,0.480,726.5,01.19,0.508
2014-06-24 01:34:00,2005E-3,5C000000,-0724,0836,12120,028.9,045.5,0.480,726.3,01.19,0.508
2014-06-24 01:35:00,1908E-3,5C000000,-0724,0836,12081,028.8,045.5,0.480,726.4,01.19,0.508
2014-06-24 01:36:00,1771E-3,5C000000,-0724,0836,12068,028.9,045.5,0.480,726.5,01.19,0.508
2014-06-24 01:37:00,1955E-3,5C000000,-0724,0837,12263,028.9,045.5,0.480,726.4,01.19,0.508
2014-06-24 01:38:00,1835E-3,5C000000,-0724,0838,12195,028.9,045.5,0.480,726.3,01.19,0.508
2014-06-24 01:39:00,1770E-3,5C000000,-0724,0835,12088,028.9,045.5,0.480,726.4,01.19,0.508
2014-06-24 01:40:00,1847E-3,5C000000,-0724,0836,12252,028.9,045.5,0.480,726.4,01.19,0.508
2014-06-24 01:41:00,2017E-3,5C000000,-0724,0836,11922,028.8,045.5,0.480,726.4,01.19,0.508
2014-06-24 01:42:00,1863E-3,5C000000,-0724,0836,12128,028.9,045.5,0.480,726.5,01.19,0.508
2014-06-24 01:43:00,1864E-3,5C000000,-0724,0836,12152,028.9,045.5,0.480,726.4,01.19,0.508
2014-06-24 01:44:00,1853E-3,5C000000,-0724,0836,12072,028.9,045.5,0.480,726.5,01.19,0.508
2014-06-24 01:45:00,1817E-3,5C000000,-0724,0836,12051,028.9,045.5,0.480,726.5,01.19,0.508
2014-06-24 01:46:00,1863E-3,5C000000,-0724,0836,12082,028.8,045.5,0.480,726.5,01.19,0.508
2014-06-24 01:47:00,1885E-3,5C000000,-0724,0836,12317,028.9,045.5,0.480,726.5,01.19,0.508
2014-06-24 01:48:00,1890E-3,5C000000,-0724,0837,12190,028.9,045.5,0.480,726.5,01.19,0.508
2014-06-24 01:49:00,1879E-3,5C000000,-0724,0837,12095,028.9,045.5,0.480,726.5,01.19,0.508
2014-06-24 01:50:00,1908E-3,5C000000,-0724,0836,12130,028.9,045.5,0.480,726.5,01.19,0.508
2014-06-24 01:51:00,1852E-3,5C000000,-0724,0837,11961,028.9,045.5,0.480,726.5,01.19,0.508
2014-06-24 01:52:00,1905E-3,5C000000,-0724,0837,12067,028.9,045.5,0.480,726.5,01.19,0.508
2014-06-24 01:53:00,1877E-3,5C000000,-0724,0837,12142,028.9,045.5,0.480,726.4,01.19,0.508
2014-06-24 01:54:00,1819E-3,5C000000,-0724,0837,12039,028.9,045.5,0.480,726.5,01.19,0.508
2014-06-24 01:55:00,1829E-3,5C000000,-0724,0836,11975,028.9,045.5,0.480,726.3,01.19,0.508
2014-06-24 01:56:00,1714E-3,5C000000,-0724,0836,12115,028.9,045.5,0.480,726.4,01.19,0.508
2014-06-24 01:57:00,1722E-3,5C000000,-0724,0837,12193,028.9,045.5,0.480,726.4,01.19,0.508
2014-06-24 01:58:00,1832E-3,5C000000,-0724,0836,12060,028.9,045.5,0.480,726.3,01.19,0.508
2014-06-24 01:59:00,1806E-3,5C000000,-0724,0835,12233,028.9,045.5,0.480,726.3,01.19,0.508
2014-06-24 02:00:00,1843E-3,5C000000,-0724,0836,12185,028.9,045.5,0.480,726.3,01.19,0.508
2014-06-24 02:01:00,1770E-3,5C000000,-0724,0836,12139,028.9,045.5,0.480,726.4,01.19,0.508
2014-06-24 02:02:00,1875E-3,5C000000,-0724,0836,12211,028.9,045.5,0.480,726.2,01.19,0.508
2014-06-24 02:03:00,2003E-3,5C000000,-0724,0836,12031,028.9,045.5,0.480,726.4,01.19,0.508
2014-06-24 02:04:00,1897E-3,5C000000,-0724,0837,12115,028.9,045.5,0.480,726.3,01.19,0.508
2014-06-24 02:05:00,1978E-3,5C000000,-0724,0836,11797,028.9,045.5,0.480,726.3,01.19,0.508
2014-06-24 02:06:00,1809E-3,5C000000,-0724,0836,12170,028.9,045.5,0.480,726.4,01.19,0.508
2014-06-24 02:07:00,1795E-3,5C000000,-0724,0836,12141,028.9,045.5,0.480,726.4,01.19,0.508
2014-06-24 02:08:00,1959E-3,5C000000,-0724,0836,12160,028.9,045.5,0.480,726.4,01.19,0.508
2014-06-24 02:09:00,1686E-3,5C000000,-0724,0836,12207,028.9,045.5,0.480,726.4,01.19,0.508
2014-06-24 02:10:00,1844E-3,5C000000,-0724,0836,12352,028.8,045.5,0.480,726.4,01.19,0.508
2014-06-24 02:11:00,1832E-3,5C000000,-0724,0836,12048,028.8,045.5,0.480,726.4,01.19,0.508
2014-06-24 02:12:00,1774E-3,5C000000,-0724,0837,12132,028.8,045.5,0.480,726.4,01.19,0.508
2014-06-24 02:13:00,1942E-3,5C000000,-0724,0837,12302,028.8,045.5,0.480,726.4,01.19,0.508
2014-06-24 02:14:00,1846E-3,5C000000,-0724,0836,12182,028.8,045.5,0.480,726.4,01.19,0.508
2014-06-24 02:15:00,1915E-3,5C000000,-0724,0837,12105,028.8,045.5,0.480,726.4,01.19,0.508
2014-06-24 02:16:00,1855E-3,5C000000,-0724,0836,12242,028.7,045.5,0.480,726.3,01.19,0.508
2014-06-24 02:17:00,1841E-3,5C000000,-0724,0836,12230,028.7,045.5,0.480,726.4,01.19,0.508
2014-06-24 02:18:00,1808E-3,5C000000,-0724,0836,12261,028.7,045.5,0.480,726.3,01.19,0.508
2014-06-24 02:19:00,1815E-3,5C000000,-0724,0835,12237,028.7,045.5,0.480,726.5,01.19,0.508
2014-06-24 02:20:00,1811E-3,5C000000,-0724,0836,12106,028.6,045.5,0.480,726.5,01.19,0.508
2014-06-24 02:21:00,1728E-3,5C000000,-0724,0836,12130,028.6,045.5,0.480,726.4,01.19,0.508
2014-06-24 02:22:00,1923E-3,5C000000,-0724,0837,12199,028.6,045.5,0.480,726.4,01.19,0.508
2014-06-24 02:23:00,1836E-3,5C000000,-0724,0836,12037,028.6,045.5,0.480,726.5,01.19,0.508
2014-06-24 02:24:00,1902E-3,5C000000,-0724,0835,12123,028.5,045.5,0.480,726.5,01.19,0.508
2014-06-24 02:25:00,1821E-3,5C000000,-0724,0837,12225,028.5,045.5,0.480,726.3,01.19,0.508
2014-06-24 02:26:00,1882E-3,5C000000,-0724,0836,12078,028.5,045.5,0.480,726.4,01.19,0.508
2014-06-24 02:27:00,1935E-3,5C000000,-0724,0836,12191,028.5,045.5,0.480,726.3,01.19,0.508
2014-06-24 02:28:00,1705E-3,5C000000,-0724,0837,12177,028.5,045.5,0.480,726.4,01.19,0.508
2014-06-24 02:29:00,1859E-3,5C000000,-0724,0837,12213,028.4,045.5,0.480,726.5,01.19,0.508
2014-06-24 02:30:00,1723E-3,5C000000,-0724,0835,12140,028.4,045.5,0.480,726.4,01.19,0.508
2014-06-24 02:31:00,1976E-3,5C000000,-0724,0836,12096,028.4,045.5,0.480,726.4,01.19,0.508
2014-06-24 02:32:00,1864E-3,5C000000,-0724,0836,12015,028.3,045.5,0.480,726.4,01.19,0.508
2014-06-24 02:33:00,2031E-3,5C000000,-0724,0836,12113,028.3,045.5,0.480,726.3,01.19,0.508
2014-06-24 02:34:00,1899E-3,5C000000,-0724,0836,11957,028.3,045.5,0.480,726.3,01.19,0.508
2014-06-24 02:35:00,1836E-3,5C000000,-0724,0836,12029,028.2,045.5,0.481,726.4,01.19,0.508
2014-06-24 02:36:00,1779E-3,5C000000,-0724,0835,12297,028.2,045.5,0.481,726.4,01.19,0.508
2014-06-24 02:37:00,1946E-3,5C000000,-0724,0837,12117,028.2,045.5,0.481,726.3,01.19,0.508
2014-06-24 02:38:00,1830E-3,5C000000,-0724,0837,12080,028.2,045.5,0.481,726.5,01.19,0.508
2014-06-24 02:39:00,1842E-3,5C000000,-0724,0836,12040,028.2,045.5,0.481,726.5,01.19,0.508
2014-06-24 02:40:00,1859E-3,5C000000,-0724,0836,12249,028.1,045.5,0.481,726.5,01.19,0.508
2014-06-24 02:41:00,1947E-3,5C000000,-0724,0837,11963,028.1,045.5,0.481,726.5,01.19,0.508
2014-06-24 02:42:00,1807E-3,5C000000,-0724,0837,12145,028.1,045.5,0.481,726.4,01.19,0.508
2014-06-24 02:43:00,1921E-3,5C000000,-0724,0837,12121,028.1,045.5,0.481,726.4,01.19,0.508
2014-06-24 02:44:00,1790E-3,5C000000,-0724,0836,12135,028.0,045.5,0.481,726.5,01.19,0.508
2014-06-24 02:45:00,1897E-3,5C000000,-0724,0836,11986,028.0,045.5,0.481,726.4,01.19,0.508
2014-06-24 02:46:00,1788E-3,5C000000,-0724,0837,12178,028.0,045.5,0.481,726.3,01.19,0.508
2014-06-24 02:47:00,1796E-3,5C000000,-0724,0836,12064,028.0,045.5,0.481,726.5,01.19,0.508
2014-06-24 02:48:00,1815E-3,5C000000,-0724,0837,11878,028.0,045.5,0.482,726.4,01.19,0.508
2014-06-24 02:49:00,1943E-3,5C000000,-0724,0836,12236,027.9,045.5,0.481,726.5,01.19,0.508
2014-06-24 02:50:00,1836E-3,5C000000,-0724,0835,12027,027.9,045.5,0.481,726.3,01.19,0.508
2014-06-24 02:51:00,1784E-3,5C000000,-0724,0836,12100,027.9,045.5,0.481,726.4,01.19,0.508
2014-06-24 02:52:00,1894E-3,5C000000,-0724,0836,12290,027.9,045.5,0.481,726.5,01.19,0.508
2014-06-24 02:53:00,1840E-3,5C000000,-0724,0836,12210,027.9,045.5,0.482,726.5,01.19,0.508
2014-06-24 02:54:00,1775E-3,5C000000,-0724,0836,12119,027.9,045.5,0.482,726.5,01.19,0.508
2014-06-24 02:55:00,1768E-3,5C000000,-0724,0837,12240,027.9,045.5,0.481,726.5,01.19,0.508
2014-06-24 02:56:00,1920E-3,5C000000,-0724,0837,12117,027.8,045.5,0.481,726.5,01.19,0.508
2014-06-24 02:57:00,1962E-3,5C000000,-0724,0837,12119,027.8,045.5,0.481,726.5,01.19,0.508
2014-06-24 02:58:00,1972E-3,5C000000,-0724,0837,12058,027.8,045.5,0.482,726.5,01.19,0.508
2014-06-24 02:59:00,1910E-3,5C000000,-0724,0837,12264,027.8,045.5,0.482,726.5,01.19,0.508
2014-06-24 03:00:00,1823E-3,5C000000,-0724,0836,12100,027.8,045.5,0.481,726.5,01.19,0.508
2014-06-24 03:01:00,1928E-3,5C000000,-0724,0836,12083,027.8,045.5,0.481,726.5,01.19,0.508
2014-06-24 03:02:00,1862E-3,5C000000,-0724,0836,12319,027.7,045.5,0.482,726.5,01.19,0.508
2014-06-24 03:03:00,1790E-3,5C000000,-0724,0836,12293,027.7,045.5,0.482,726.4,01.19,0.508
2014-06-24 03:04:00,1949E-3,5C000000,-0724,0836,12258,027.7,045.5,0.481,726.5,01.19,0.508
2014-06-24 03:05:00,1727E-3,5C000000,-0724,0836,11969,027.7,045.5,0.481,726.5,01.19,0.508
2014-06-24 03:06:00,1838E-3,5C000000,-0724,0837,12321,027.7,045.5,0.482,726.5,01.19,0.508
2014-06-24 03:07:00,1929E-3,5C000000,-0724,0836,12071,027.7,045.5,0.482,726.5,01.19,0.508
2014-06-24 03:08:00,1773E-3,5C000000,-0724,0837,12219,027.7,045.5,0.482,726.5,01.19,0.508
2014-06-24 03:09:00,1789E-3,5C000000,-0724,0837,12248,027.7,045.5,0.481,726.5,01.19,0.508
2014-06-24 03:10:00,1857E-3,5C000000,-0724,0837,12081,027.6,045.5,0.482,726.5,01.19,0.508
2014-06-24 03:11:00,1836E-3,5C000000,-0724,0836,12233,027.7,045.5,0.482,726.5,01.19,0.508
2014-06-24 03:12:00,1900E-3,5C000000,-0724,0837,12273,027.6,045.5,0.482,726.5,01.19,0.508
2014-06-24 03:13:00,1898E-3,5C000000,-0724,0836,12060,027.6,045.5,0.481,726.5,01.19,0.508
2014-06-24 03:14:00,1821E-3,5C000000,-0724,0836,12253,027.6,045.5,0.482,726.5,01.19,0.508
2014-06-24 03:15:00,1714E-3,5C000000,-0724,0837,11999,027.6,045.5,0.482,726.5,01.19,0.508
2014-06-24 03:16:00,1866E-3,5C000000,-0724,0836,12231,027.6,045.5,0.482,726.5,01.19,0.508
2014-06-24 03:17:00,1734E-3,5C000000,-0724,0836,12030,027.6,045.5,0.482,726.5,01.19,0.508
2014-06-24 03:18:00,1843E-3,5C000000,-0724,0836,11982,027.6,045.5,0.482,726.5,01.19,0.508
2014-06-24 03:19:00,1760E-3,5C000000,-0724,0836,12150,027.5,045.5,0.482,726.6,01.19,0.508
2014-06-24 03:20:00,1870E-3,5C000000,-0724,0837,12135,027.5,045.5,0.482,726.6,01.19,0.508
2014-06-24 03:21:00,1904E-3,5C000000,-0724,0836,12149,027.5,045.5,0.482,726.5,01.19,0.508
2014-06-24 03:22:00,1849E-3,5C000000,-0724,0837,12049,027.5,045.5,0.482,726.5,01.19,0.508
2014-06-24 03:23:00,1854E-3,5C000000,-0724,0836,11794,027.5,045.5,0.482,726.5,01.19,0.508
2014-06-24 03:24:00,1784E-3,5C000000,-0724,0836,12211,027.5,045.5,0.482,726.5,01.19,0.508
2014-06-24 03:25:00,1853E-3,5C000000,-0724,0837,12207,027.5,045.5,0.482,726.5,01.19,0.508
2014-06-24 03:26:00,1822E-3,5C000000,-0724,0835,12118,027.4,045.5,0.482,726.5,01.19,0.508
2014-06-24 03:27:00,1905E-3,5C000000,-0724,0836,12273,027.4,045.5,0.482,726.5,01.19,0.508
2014-06-24 03:28:00,1705E-3,5C000000,-0724,0836,12215,027.4,045.5,0.482,726.5,01.19,0.508
2014-06-24 03:29:00,1733E-3,5C000000,-0724,0835,12056,027.4,045.5,0.482,726.5,01.19,0.508
2014-06-24 03:30:00,1928E-3,5C000000,-0724,0836,12202,027.4,045.5,0.482,726.5,01.19,0.508
2014-06-24 03:31:00,1868E-3,5C000000,-0724,0837,12179,027.4,045.5,0.482,726.5,01.19,0.508
2014-06-24 03:32:00,1721E-3,5C000000,-0724,0836,11976,027.4,045.5,0.482,726.5,01.19,0.508
2014-06-24 03:33:00,1784E-3,5C000000,-0724,0837,12128,027.4,045.5,0.482,726.5,01.19,0.508
2014-06-24 03:34:00,1765E-3,5C000000,-0724,0836,11817,027.3,045.5,0.482,726.5,01.19,0.508
2014-06-24 03:35:00,1808E-3,5C000000,-0724,0837,12018,027.3,045.5,0.482,726.6,01.19,0.508
2014-06-24 03:36:00,1820E-3,5C000000,-0724,0836,11953,027.3,045.5,0.482,726.6,01.19,0.508
2014-06-24 03:37:00,1889E-3,5C000000,-0724,0836,12171,027.3,045.5,0.482,726.6,01.19,0.508
2014-06-24 03:38:00,1755E-3,5C000000,-0724,0836,12082,027.3,045.5,0.482,726.6,01.19,0.508
2014-06-24 03:39:00,1816E-3,5C000000,-0724,0836,12182,027.3,045.5,0.482,726.6,01.19,0.508
2014-06-24 03:40:00,1693E-3,5C000000,-0724,0836,12216,027.3,045.5,0.483,726.6,01.19,0.508
2014-06-24 03:41:00,1977E-3,5C000000,-0724,0836,12178,027.2,045.5,0.483,726.6,01.19,0.508
2014-06-24 03:42:00,1779E-3,5C000000,-0724,0836,12297,027.2,045.5,0.482,726.6,01.19,0.508
2014-06-24 03:43:00,1877E-3,5C000000,-0724,0837,12304,027.2,045.5,0.483,726.6,01.19,0.508
2014-06-24 03:44:00,1763E-3,5C000000,-0724,0836,12309,027.2,045.5,0.482,726.6,01.19,0.508
2014-06-24 03:45:00,2071E-3,5C000000,-0724,0837,12161,027.2,045.5,0.482,726.6,01.19,0.508
2014-06-24 03:46:00,1846E-3,5C000000,-0724,0836,12045,027.2,045.5,0.483,726.6,01.19,0.508
2014-06-24 03:47:00,1786E-3,5C000000,-0724,0836,12159,027.2,045.5,0.482,726.6,01.19,0.508
2014-06-24 03:48:00,1865E-3,5C000000,-0724,0835,12014,027.2,045.5,0.482,726.6,01.19,0.508
2014-06-24 03:49:00,1782E-3,5C000000,-0724,0836,12043,027.1,045.5,0.483,726.6,01.19,0.508
2014-06-24 03:50:00,1860E-3,5C000000,-0724,0837,12150,027.1,045.5,0.482,726.6,01.19,0.508
2014-06-24 03:51:00,1793E-3,5C000000,-0724,0836,12026,027.1,045.5,0.483,726.6,01.19,0.508
2014-06-24 03:52:00,1940E-3,5C000000,-0724,0836,12147,027.1,045.5,0.483,726.6,01.19,0.508
2014-06-24 03:53:00,1830E-3,5C000000,-0724,0836,12028,027.1,045.5,0.482,726.6,01.19,0.508
2014-06-24 03:54:00,1807E-3,5C000000,-0724,0836,11979,027.1,045.5,0.483,726.6,01.19,0.508
2014-06-24 03:55:00,1880E-3,5C000000,-0724,0836,12198,027.1,045.5,0.482,726.7,01.19,0.508
2014-06-24 03:56:00,1748E-3,5C000000,-0724,0836,12064,027.0,045.5,0.483,726.6,01.19,0.508
2014-06-24 03:57:00,1811E-3,5C000000,-0724,0835,12271,027.0,045.5,0.483,726.6,01.19,0.508
2014-06-24 03:58:00,1765E-3,5C000000,-0724,0836,12178,027.0,045.5,0.483,726.7,01.19,0.508
2014-06-24 03:59:00,1883E-3,5C000000,-0724,0836,12001,027.0,045.4,0.483,726.7,01.19,0.508
2014-06-24 04:00:00,1873E-3,5C000000,-0724,0835,12110,027.0,045.5,0.482,726.7,01.19,0.508
2014-06-24 04:01:00,1767E-3,5C000000,-0724,0836,12159,027.0,045.4,0.483,726.6,01.19,0.508
2014-06-24 04:02:00,1774E-3,5C000000,-0724,0836,12157,027.0,045.5,0.482,726.6,01.19,0.508
2014-06-24 04:03:00,1786E-3,5C000000,-0724,0837,12115,027.0,045.5,0.483,726.6,01.19,0.508
2014-06-24 04:04:00,1781E-3,5C000000,-0724,0835,12053,027.0,045.5,0.483,726.6,01.19,0.508
2014-06-24 04:05:00,1852E-3,5C000000,-0724,0836,11997,027.0,045.5,0.483,726.6,01.19,0.508
2014-06-24 04:06:00,1822E-3,5C000000,-0724,0836,12205,027.0,045.5,0.483,726.6,01.19,0.508
2014-06-24 04:07:00,1781E-3,5C000000,-0724,0835,12134,027.0,045.5,0.483,726.6,01.19,0.508
2014-06-24 04:08:00,1745E-3,5C000000,-0724,0836,12154,027.0,045.5,0.483,726.6,01.19,0.508
2014-06-24 04:09:00,1789E-3,5C000000,-0724,0835,12077,026.9,045.5,0.482,726.6,01.19,0.508
2014-06-24 04:10:00,1830E-3,5C000000,-0724,0836,12085,027.0,045.4,0.483,726.6,01.19,0.508
2014-06-24 04:11:00,1814E-3,5C000000,-0724,0836,12007,026.9,045.5,0.482,726.6,01.19,0.508
2014-06-24 04:12:00,1821E-3,5C000000,-0724,0836,12243,026.9,045.5,0.483,726.6,01.19,0.508
2014-06-24 04:13:00,1786E-3,5C000000,-0724,0835,12233,026.9,045.5,0.483,726.6,01.19,0.508
2014-06-24 04:14:00,1925E-3,5C000000,-0724,0836,12331,026.9,045.5,0.483,726.6,01.19,0.508
2014-06-24 04:15:00,1850E-3,5C000000,-0724,0836,12264,026.9,045.5,0.483,726.7,01.19,0.508
2014-06-24 04:16:00,1857E-3,5C000000,-0724,0836,11971,026.9,045.5,0.483,726.7,01.19,0.508
2014-06-24 04:17:00,1786E-3,5C000000,-0724,0836,12178,026.9,045.5,0.483,726.7,01.19,0.508
2014-06-24 04:18:00,1783E-3,5C000000,-0724,0836,12114,026.9,045.5,0.483,726.7,01.19,0.508
2014-06-24 04:19:00,1763E-3,5C000000,-0724,0836,12271,026.9,045.5,0.483,726.7,01.19,0.508
2014-06-24 04:20:00,1912E-3,5C000000,-0724,0838,12143,026.9,045.5,0.483,726.7,01.19,0.508